Location: Bacharowice
(49.9333°N, 19.5833°E)
Time: 09:25:55
(UTC+00:00)

Cosmos 1908 Rocket - Pass Details

Date: 27 September 2021
Orbit: 605 x 633 km, 82.5° (Epoch: 27 October)

Event Time Altitude Azimuth Distance (km) Brightness Sun altitude
Rises 18:53:23 0° 238° (WSW) 2,922 7.4 -23.4°
Reaches altitude 10° 18:56:31 10° 262° (W) 2,017 6.9 -23.8°
Maximum altitude 18:59:06 15° 297° (WNW) 1,707 6.8 -24.2°
Drops below altitude 10° 19:01:42 10° 333° (NNW) 2,019 6.9 -24.6°
Sets 19:04:52 0° 357° (N) 2,927 7.5 -25.0°
